カタログに戻る

PRSC-EO1

運用中科学SSO
NORAD 62726·PAYLOAD·🇨🇳 China
この衛星名は、まだ公式ソースで確認されていません。

打ち上げ Jan 17, 2025 から Jiuquan Satellite Launch Center

Loading…

次のパス (今後24時間)

TLE

最新Source: Space-Track

元期: Sep 14, 2026, 04:16 UTC

1 62726U 25012B   26257.17790806  .00003394  00000-0  15205-3 0  9998
2 62726  97.4159 328.9972 0007911 334.0827  26.0011 15.21902957 91781

AllMySatでPRSC-EO1をリアルタイム追跡

Download on the App Store